Home > Weather > Ibiza > Past weeks

Flag for Spain Past Weather in Ibiza, Ibiza, Spain — Yesterday and Last 2 Weeks

Now
77 °F

Passing clouds.


Feels Like: 79 °F
Forecast: 67 / 80 °F
Wind: 13 mph from Northeast

Location: Ibiza / Es Codola

Current Time: Jun 28, 2016 at 7:02:36 PM

Latest Report: Jun 28, 2016 at 6:00 PM


Visibility: N/A

Pressure: 30.01 "Hg

Humidity: 65%

Dew Point: 64 °F

Location of IbizaLocation

Past Weather in Ibiza — Graph

°F

Ibiza Temperature Yesterday

Maximum temperature yesterday: 79 °F (at 1:00 PM)
Minimum temperature yesterday: 70 °F (at 5:00 AM)
Average temperature yesterday: 74 °F

High & Low Weather Summary for the Past Weeks

 TemperatureHumidityPressure
High84 °F (Jun 13, 5:30 PM)94% (Jun 15, 2:00 AM)30.27 "Hg (Jun 15, 2:00 AM)
Low59 °F (Jun 19, 4:30 AM)24% (Jun 16, 3:30 PM)29.56 "Hg (Jun 15, 5:30 PM)
Average73 °F67%30.02 "Hg
* Reported Jun 13 5:00 PM — Jun 28 5:30 PM, Ibiza, Weather by CustomWeather, © 2016

Note: Actual official high and low records may vary slightly from our data, if they occured in-between our weather recording intervals... More about our weather records

Advertising

Ibiza Weather History for the Previous 24 Hours

Scroll right to see more
 ConditionsComfort  
Time TempWeatherWind HumidityBarometerVisibility
5:30 PM
Tue, Jun 28
77 °FPassing clouds.13 mph69%30.04 "HgN/A
5:00 PM79 °FPassing clouds.13 mph65%30.04 "HgN/A
4:30 PM79 °FSunny.13 mph65%30.04 "Hg10 mi
4:00 PM79 °FPassing clouds.12 mph65%30.07 "HgN/A
3:30 PM77 °FPassing clouds.10 mph69%30.07 "HgN/A
3:00 PM77 °FPassing clouds.12 mph69%30.07 "HgN/A
2:30 PM77 °FPassing clouds.13 mph65%30.07 "HgN/A
2:00 PM79 °FPassing clouds.10 mph61%30.09 "HgN/A
1:30 PM79 °FPassing clouds.10 mph61%30.09 "HgN/A
1:00 PM77 °FPassing clouds.10 mph65%30.09 "HgN/A
12:30 PM77 °FPassing clouds.10 mph65%30.09 "HgN/A
12:00 PM77 °FPassing clouds.9 mph65%30.09 "HgN/A
11:30 AM75 °FPassing clouds.14 mph69%30.07 "HgN/A
11:00 AM77 °FPassing clouds.12 mph69%30.09 "HgN/A
10:30 AM75 °FPassing clouds.10 mph74%30.09 "HgN/A
10:00 AM75 °FSunny.10 mph74%30.09 "Hg10 mi
9:30 AM75 °FPassing clouds.8 mph74%30.12 "HgN/A
9:00 AM73 °FPassing clouds.8 mph74%30.09 "HgN/A
8:30 AM73 °FPassing clouds.3 mph74%30.09 "HgN/A
8:00 AM72 °FSunny.6 mph78%30.09 "Hg10 mi
7:30 AM70 °FClear.7 mph83%30.09 "Hg10 mi
7:00 AM68 °FClear.9 mph88%30.07 "Hg10 mi
6:30 AM68 °FClear.7 mph88%30.09 "Hg10 mi
6:00 AM66 °FClear.6 mph88%30.09 "Hg10 mi
5:30 AM68 °FPassing clouds.5 mph83%30.09 "HgN/A
5:00 AM66 °FPassing clouds.5 mph88%30.09 "HgN/A
4:30 AM66 °FClear.5 mph88%30.12 "Hg10 mi
4:00 AM68 °FClear.6 mph83%30.12 "Hg10 mi
3:30 AM68 °FClear.3 mph83%30.12 "Hg10 mi
3:00 AM66 °FClear.6 mph88%30.12 "Hg10 mi
2:30 AM68 °FClear.2 mph83%30.15 "Hg10 mi
2:00 AM70 °FClear.2 mph78%30.15 "Hg10 mi
1:30 AM70 °FPassing clouds.3 mph83%30.12 "HgN/A
1:00 AM72 °FPassing clouds.3 mph78%30.12 "HgN/A
12:30 AM72 °FPassing clouds.6 mph78%30.12 "HgN/A
12:00 AM72 °FPassing clouds.7 mph78%30.12 "HgN/A
11:30 PM
Mon, Jun 27
72 °FPassing clouds.6 mph78%30.12 "HgN/A
11:00 PM72 °FPassing clouds.7 mph78%30.12 "HgN/A
10:30 PM72 °FPassing clouds.6 mph78%30.12 "HgN/A
10:00 PM72 °FPassing clouds.7 mph73%30.12 "HgN/A
9:30 PM73 °FPassing clouds.7 mph69%30.12 "HgN/A
9:00 PM73 °FPassing clouds.7 mph69%30.12 "HgN/A
8:30 PM73 °FSunny.8 mph69%30.12 "Hg10 mi
8:00 PM75 °FPassing clouds.8 mph65%30.12 "HgN/A
7:30 PM75 °FPassing clouds.9 mph65%30.12 "HgN/A
7:00 PM75 °FPassing clouds.8 mph65%30.12 "HgN/A
Weather by CustomWeather, © 2016

See weather overviewHow to use our weather pages